Location: Unspecified
(17.6330°N, 0.0000°E)
Time: 10:54:20
(UTC+00:00)

S-56A Canister/Altair - Pass Details

Date: 02 July 2019
Orbit: 633 x 2499 km, 38.9° (Epoch: 17 August)

Event Time Altitude Azimuth Distance (km) Brightness Sun altitude
Rises 20:33:51 0° 293° (WNW) 3,678 12.3 -24.5°
Reaches altitude 10° 20:37:11 10° 281° (WNW) 2,474 11.0 -25.1°
Maximum altitude 20:41:42 26° 226° (SW) 1,402 8.9 -26.0°
Enters shadow 20:42:09 25° 217° (SW) 1,396 8.8 -26.1°
Drops below altitude 10° 20:45:30 10° 169° (S) 2,043 - -26.7°
Sets 20:47:59 0° 155° (SSE) 2,908 - -27.2°
